[[{"header":{"parameterUnit":"m.s-1","parameterCategory":2,"la1":30.2991,"la2":30.254,"lo1":-89.0895,"lo2":-89.0444,"dy":0.0017,"dx":0.0017,"nx":28,"ny":28,"refTime":"2023-11-16T03:00:00:Z","depth":"0","parameterNumber":2,"parameterNumberName":"U-component_of_CURRENTS"},"data":[0,0,0,0,0,0,0,0,0,0,0,0,0,0,0,0,0,0,0,0,0,0,0,0,0,0,0,0,0,0,0,0,0,0,0,0,0,0,0,0,0,0,0,0,0,0,0,0,0,0,0,0,0,0,0,0,0,0,0.4352,0.4353,0,0.4357,0.4357,0.4357,0.4331,0.4331,0.433,0.433,0.4308,0.4307,0.4307,0,0,0,0,0,0,0,0,0,0,0,0,0,0.4393,0.4392,0.4352,0.4353,0.4353,0.4357,0.4357,0.4357,0.4331,0.4331,0.433,0.433,0.4308,0.4307,0.4307,0,0,0,0,0,0,0,0,0,0,0,0,0,0.4382,0.4392,0.4352,0.4342,0.4342,0.4357,0.4357,0.4357,0.4332,0.4331,0.433,0.4329,0.4308,0.4307,0.4307,0.4322,0,0,0.4307,0.4307,0,0,0,0,0,0,0,0,0.4383,0.438,0.4344,0.4343,0.4342,0.4345,0.4364,0.4345,0.4332,0.4333,0.433,0.4329,0.432,0.4318,0.4318,0.4321,0.432,0.4307,0.4307,0.4307,0.4307,0,0,0,0,0,0,0,0.4383,0.4381,0.4352,0.4344,0.4343,0.4363,0.4359,0.436,0.4328,0.4333,0.4332,0.4336,0.4319,0.4318,0.4317,0.432,0.4307,0.4307,0.4307,0.4307,0.4383,0.4385,0,0,0,0,0,0,0.4384,0.4381,0.4352,0.4352,0.4364,0.4362,0.4359,0.4343,0.4329,0.4327,0.4337,0.4335,0.4319,0.4318,0.4317,0.4372,0.4307,0.4307,0.4306,0.4381,0.4383,0.4385,0,0,0,0,0,0,0.4385,0.4381,0.4352,0.437,0.4368,0.4362,0.4345,0.4344,0.435,0.4333,0.4329,0.4346,0.4318,0.4317,0.4336,0.4369,0.4306,0.4306,0.4378,0.4381,0.4384,0.4458,0,0,0,0,0,0,0.4386,0.438,0.4373,0.4369,0.4367,0.4375,0.4346,0.4344,0.4355,0.4353,0.434,0.4336,0.4318,0.4336,0.4336,0.4368,0.4306,0.4375,0.438,0.4383,0.4453,0.4463,0.4472,0,0,0,0,0,0.4387,0.4381,0.4372,0.4369,0.4354,0.4377,0.4378,0.437,0.4356,0.4371,0.4364,0.4337,0.4361,0.4338,0.4337,0.437,0.4374,0.4378,0.4383,0.4449,0.4461,0.4472,0,0,0,0,0,0,0.4392,0.4378,0.4368,0.4355,0.4372,0.4374,0.4385,0.4381,0.4386,0.4383,0.4359,0.4357,0.4393,0.4374,0.4349,0.4406,0.4365,0.437,0.4416,0.4427,0.4437,0.4457,0.4306,0,0,0,0,0,0.439,0.4382,0.4383,0.4378,0.4387,0.4389,0.4397,0.4396,0.44,0.4401,0.4393,0.4393,0.4412,0.4412,0.4423,0.4445,0.4452,0.4469,0.4479,0.4487,0.4505,0.4554,0.457,0.4401,0.4401,0.4401,0,0,0.4391,0.4385,0.4379,0.4381,0.4389,0.4411,0.4391,0.4413,0.4436,0.4399,0.4425,0.443,0.443,0.4464,0.4477,0.4448,0.4539,0.4493,0.45,0.4514,0.4561,0.4577,0.4592,0.4404,0.4404,0.4403,0,0,0.4403,0.4387,0.439,0.4409,0.4429,0.4436,0.4447,0.4458,0.4468,0.4496,0.4488,0.4518,0.4521,0.454,0.4548,0.4619,0.4597,0.4617,0.467,0.4717,0.4731,0.4744,0.4771,0.4785,0.461,0.461,0.4611,0,0.4406,0.44,0.4402,0.4422,0.4441,0.445,0.4476,0.4496,0.4513,0.4535,0.4514,0.4568,0.4565,0.4627,0.4653,0.4642,0.4655,0.4621,0.473,0.4742,0.4754,0.4779,0.4794,0.4615,0.4614,0.4614,0.4613,0,0.442,0.4427,0.444,0.4459,0.449,0.4514,0.4546,0.4579,0.4588,0.4602,0.4666,0.4673,0.4705,0.4714,0.4702,0.479,0.4768,0.4744,0.4698,0.4776,0.4796,0.481,0.4621,0.4619,0.4618,0.4617,0,0,0.4379,0.4436,0.4436,0.4451,0.4509,0.4523,0.4597,0.465,0.4691,0.4717,0.4773,0.482,0.4825,0.4837,0.4836,0.4875,0.4966,0.4846,0.4846,0.4869,0.5062,0.5032,0.5044,0.4957,0.496,0.4963,0.5042,0,0.4383,0.4415,0.4458,0.4497,0.4512,0.4576,0.4635,0.4693,0.4745,0.4803,0.4842,0.4892,0.4871,0.4895,0.4937,0.4968,0.5008,0.4946,0.4988,0.4989,0.495,0.5061,0.4915,0.4973,0.5056,0.5058,0.506,0,0.4359,0.4386,0.4426,0.4497,0.4513,0.4553,0.4651,0.471,0.482,0.4862,0.4939,0.4972,0.5059,0.5017,0.5117,0.5077,0.5085,0.5095,0.5098,0.5057,0.4987,0.491,0.4995,0.4879,0.5081,0.5079,0.5078,0,0.4278,0.435,0.4376,0.44,0.4494,0.4542,0.4602,0.472,0.4782,0.4914,0.4961,0.5068,0.5111,0.5168,0.5207,0.5171,0.53,0.5244,0.5223,0.5219,0.5099,0.508,0.5074,0.5317,0.5317,0.5317,0.5317,0,0.4232,0.4246,0.4337,0.4344,0.4391,0.4483,0.4561,0.465,0.4783,0.4857,0.4973,0.5053,0.5153,0.5236,0.5256,0.5302,0.5343,0.527,0.5257,0.5119,0.5102,0.4997,0.4935,0.532,0.5319,0.5319,0.5318,0,0.4128,0.4188,0.4217,0.4317,0.4349,0.438,0.4521,0.457,0.4715,0.4827,0.4875,0.5057,0.5187,0.5271,0.5377,0.5352,0.5266,0.5399,0.5228,0.5195,0.505,0.4997,0.48,0.4657,0.5395,0.5395,0.5395,0,0.4078,0.4079,0.417,0.4181,0.4228,0.4298,0.4341,0.451,0.4582,0.4824,0.4859,0.5054,0.5173,0.5328,0.5371,0.5432,0.5252,0.5287,0.5198,0.5061,0.4993,0.4771,0.4647,0.5059,0.5057,0.5054,0.5053,0,0.3982,0.4016,0.4041,0.4071,0.4108,0.4156,0.4247,0.4299,0.4503,0.461,0.4783,0.4922,0.5143,0.5181,0.5288,0.5301,0.5049,0.5242,0.5144,0.4789,0.4501,0.4349,0.4978,0.5033,0.5035,0.5036,0.5037,0.5038,0.3904,0.3896,0.3925,0.3936,0.3971,0.3987,0.3979,0.4096,0.4193,0.4326,0.4588,0.4714,0.4937,0.5099,0.5074,0.4978,0.4927,0.4847,0.4813,0.4614,0.4415,0.5007,0.502,0.5022,0.5023,0.5025,0.5026,0,0.3774,0.3774,0.3782,0.3778,0.3739,0.3822,0.3875,0.3841,0.3875,0.409,0.4227,0.4457,0.4539,0.4673,0.4736,0.4588,0.4343,0.4457,0.4113,0.4028,0.4615,0.4542,0.4397,0.4397,0.4397,0.4397,0.4397,0.4398,0.3708,0.3652,0.3647,0.3538,0.3528,0.3439,0.3428,0.3423,0.3526,0.3618,0.375,0.3948,0.4304,0.4461,0.4374,0.4269,0.3926,0.3759,0.3716,0.4164,0.4196,0.4227,0.4145,0.3919,0.3918,0.2963,0.2956,0.2951]},{"header":{"parameterUnit":"m.s-1","parameterCategory":2,"la1":30.2991,"la2":30.254,"lo1":-89.0895,"lo2":-89.0444,"dy":0.0017,"dx":0.0017,"nx":28,"ny":28,"refTime":"2023-11-16T03:00:00:Z","depth":"0","parameterNumber":3,"parameterNumberName":"V-component_of_CURRENTS"},"data":[0,0,0,0,0,0,0,0,0,0,0,0,0,0,0,0,0,0,0,0,0,0,0,0,0,0,0,0,0,0,0,0,0,0,0,0,0,0,0,0,0,0,0,0,0,0,0,0,0,0,0,0,0,0,0,0,0,0,-0.0006,-0.0007,0,-0.0084,-0.0085,-0.0086,-0.0137,-0.0137,-0.0137,-0.0137,-0.0217,-0.0219,-0.0221,0,0,0,0,0,0,0,0,0,0,0,0,0,0.0025,0.0025,-0.0006,-0.0007,-0.0008,-0.0084,-0.0085,-0.0086,-0.0137,-0.0137,-0.0137,-0.0138,-0.0217,-0.0219,-0.0221,0,0,0,0,0,0,0,0,0,0,0,0,0,-0.0015,0.0025,-0.0006,-0.0041,-0.0045,-0.0083,-0.0085,-0.0086,-0.0137,-0.0137,-0.0137,-0.0138,-0.0216,-0.0219,-0.0222,-0.0232,0,0,-0.023,-0.0232,0,0,0,0,0,0,0,0,-0.0013,-0.0016,-0.0035,-0.0039,-0.0043,-0.01,-0.0103,-0.0135,-0.0137,-0.0103,-0.0137,-0.0138,-0.0177,-0.0183,-0.0199,-0.0236,-0.024,-0.0231,-0.0232,-0.0234,-0.0234,0,0,0,0,0,0,0,-0.001,-0.0014,-0.0038,-0.0036,-0.0041,-0.0079,-0.0084,-0.011,-0.0138,-0.0106,-0.011,-0.0116,-0.018,-0.0196,-0.0201,-0.0241,-0.023,-0.0233,-0.0235,-0.0236,-0.0291,-0.0291,0,0,0,0,0,0,0.0006,-0.0011,-0.0035,-0.004,-0.0027,-0.0078,-0.0085,-0.0082,-0.0138,-0.0147,-0.0116,-0.0118,-0.0191,-0.0198,-0.0204,-0.02,-0.0234,-0.0236,-0.0238,-0.0292,-0.0291,-0.0291,0,0,0,0,0,0,0.0007,0.0005,-0.0032,-0.0027,-0.0034,-0.0078,-0.0075,-0.0084,-0.0094,-0.0145,-0.0154,-0.0117,-0.0191,-0.02,-0.0219,-0.0204,-0.0238,-0.024,-0.0292,-0.0292,-0.0291,-0.0205,0,0,0,0,0,0,0.0009,0.0006,0.0013,-0.0025,-0.0034,-0.004,-0.0075,-0.0085,-0.0098,-0.0101,-0.0149,-0.0158,-0.0192,-0.0214,-0.0221,-0.0209,-0.0242,-0.0292,-0.0292,-0.0291,-0.0208,-0.0202,-0.0197,0,0,0,0,0,0.001,0.0027,0.0014,0.0011,-0.0023,-0.0039,-0.0047,-0.0081,-0.0097,-0.0093,-0.0128,-0.0156,-0.0217,-0.0216,-0.0225,-0.0213,-0.0292,-0.0292,-0.0291,-0.0211,-0.0203,-0.0197,0,0,0,0,0,0,0.0042,0.0023,0.0007,0.0017,-0.0005,-0.0047,-0.0049,-0.0072,-0.0098,-0.01,-0.015,-0.016,-0.0175,-0.0206,-0.0203,-0.0229,-0.026,-0.0261,-0.0196,-0.0189,-0.0183,-0.0151,-0.0245,0,0,0,0,0,0.0054,0.0061,0.0033,0.0039,0.0033,-0.0006,-0.0018,-0.0038,-0.0067,-0.0079,-0.0114,-0.0151,-0.0181,-0.0192,-0.0226,-0.0233,-0.0265,-0.0234,-0.0228,-0.0223,-0.0204,-0.0245,-0.024,-0.0289,-0.0289,-0.0289,0,0,0.0066,0.0056,0.0059,0.0046,0.0025,0.0035,-0.0014,-0.0021,-0.0013,-0.0082,-0.0084,-0.0132,-0.018,-0.0193,-0.0202,-0.0214,-0.0227,-0.0222,-0.0217,-0.0201,-0.0243,-0.0238,-0.0234,-0.0289,-0.0289,-0.0289,0,0,0.0102,0.0089,0.0111,0.0102,0.0084,0.0066,0.0071,0.0037,0.0022,0.0009,-0.004,-0.0072,-0.0117,-0.0147,-0.0168,-0.0148,-0.0197,-0.0164,-0.0103,-0.0142,-0.0138,-0.0135,-0.0171,-0.0172,-0.0157,-0.0157,-0.0157,0,0.0117,0.0145,0.0113,0.0133,0.0137,0.009,0.0119,0.0099,0.0062,0.0058,0.0023,-0.0046,-0.0092,-0.0102,-0.0101,-0.0131,-0.0163,-0.0123,-0.0133,-0.013,-0.0128,-0.0167,-0.0168,-0.0153,-0.0153,-0.0154,-0.0154,0,0.0174,0.0194,0.0207,0.0223,0.022,0.0237,0.0211,0.021,0.0182,0.0152,0.0127,0.0053,0.0018,-0.0011,-0.0051,-0.0057,-0.0088,-0.0122,-0.0145,-0.0118,-0.0161,-0.0164,-0.0147,-0.0148,-0.015,-0.0151,0,0,0.023,0.0246,0.0255,0.0281,0.0274,0.0285,0.0302,0.0307,0.0332,0.0265,0.0281,0.0201,0.0151,0.0124,0.0062,0.0021,-0.0005,-0.0037,-0.0041,-0.0061,-0.0091,-0.0096,-0.0101,-0.0044,-0.0044,-0.0044,-0.0127,0,0.0291,0.0355,0.0343,0.0408,0.0442,0.0413,0.0439,0.0431,0.0407,0.0408,0.0319,0.0299,0.0206,0.0189,0.0135,0.0038,-0.001,0.0021,-0.0124,-0.0128,-0.0126,-0.0103,-0.005,-0.0117,-0.013,-0.0131,-0.0131,0,0.0368,0.0401,0.0476,0.0518,0.0532,0.0563,0.0608,0.0623,0.0601,0.0579,0.0531,0.0452,0.0389,0.0299,0.015,0.0174,0.0054,-0.0037,-0.0043,-0.0075,-0.0138,-0.0148,-0.0123,-0.0359,-0.0137,-0.0137,-0.0136,0,0.0448,0.0503,0.0573,0.0586,0.0621,0.0657,0.0679,0.068,0.0716,0.0689,0.0702,0.0593,0.0564,0.0396,0.0205,0.0176,0.0039,-0.0028,-0.015,-0.0153,-0.0146,-0.0147,-0.0352,-0.014,-0.014,-0.0139,-0.0139,0,0.0531,0.0588,0.0622,0.0662,0.076,0.0745,0.0841,0.0846,0.0868,0.0939,0.0799,0.0828,0.0587,0.0471,0.0263,0.0068,0.0081,-0.0125,-0.0168,-0.0116,-0.0114,-0.0351,-0.0478,-0.0142,-0.0142,-0.0141,-0.0141,0,0.061,0.0629,0.0716,0.0772,0.0803,0.0874,0.0959,0.1023,0.1025,0.1117,0.1114,0.1018,0.088,0.0622,0.0374,0.0175,-0.0157,-0.012,-0.0039,-0.007,-0.0411,-0.0533,-0.0757,-0.0852,-0.0269,-0.0269,-0.027,0,0.0654,0.071,0.0808,0.087,0.0903,0.1002,0.1077,0.111,0.1191,0.1251,0.1311,0.1201,0.1176,0.0801,0.0428,0.0076,-0.0159,-0.0129,-0.0183,-0.0409,-0.0578,-0.0672,-0.0742,-0.0151,-0.015,-0.015,-0.0149,0,0.0736,0.0775,0.0845,0.0979,0.1072,0.1187,0.1301,0.1394,0.1462,0.1556,0.1665,0.1649,0.1304,0.0988,0.0489,0.0231,-0.0269,-0.0131,-0.0387,-0.0511,-0.0603,-0.0719,-0.0127,-0.0145,-0.0145,-0.0146,-0.0146,-0.0146,0.0799,0.0865,0.0963,0.1094,0.1209,0.1367,0.1483,0.1628,0.1806,0.1975,0.1946,0.2001,0.1513,0.0853,0.0449,-0.0239,-0.0268,-0.0451,-0.0583,-0.066,-0.0744,-0.0137,-0.0191,-0.0192,-0.0193,-0.0193,-0.0193,0,0.0868,0.0946,0.1067,0.1225,0.1366,0.1417,0.1629,0.177,0.2018,0.2199,0.2314,0.2163,0.153,0.0867,-0.0067,-0.059,-0.0777,-0.0881,-0.1016,-0.107,-0.0544,-0.0532,-0.0635,-0.0635,-0.0634,-0.0634,-0.0634,-0.0634,0.0901,0.1024,0.109,0.1331,0.1449,0.1654,0.1786,0.202,0.2211,0.248,0.2578,0.2592,0.2111,0.04,-0.0791,-0.1069,-0.1422,-0.1495,-0.1707,-0.1372,-0.1343,-0.1315,-0.1336,-0.1605,-0.1607,-0.2145,-0.215,-0.2155]}],[{"header":{"parameterUnit":"m.s-1","parameterCategory":2,"la1":30.2991,"la2":30.254,"lo1":-89.0895,"lo2":-89.0444,"dy":0.0017,"dx":0.0017,"nx":28,"ny":28,"refTime":"2023-11-16T03:00:00:Z","depth":"2","parameterNumber":2,"parameterNumberName":"U-component_of_CURRENTS"},"data":[0,0,0,0,0,0,0,0,0,0,0,0,0,0,0,0,0,0,0,0,0,0,0,0,0,0,0,0,0,0,0,0,0,0,0,0,0,0,0,0,0,0,0,0,0,0,0,0,0,0,0,0,0,0,0,0,0,0,0.3548,0.3549,0,0.3589,0.3589,0.3589,0.3593,0.3593,0.3593,0.3593,0.3601,0.3602,0.3602,0,0,0,0,0,0,0,0,0,0,0,0,0,0.3472,0.3473,0.3548,0.3549,0.355,0.3589,0.3589,0.3589,0.3593,0.3593,0.3593,0.3593,0.3601,0.3602,0.3602,0,0,0,0,0,0,0,0,0,0,0,0,0,0.3505,0.3473,0.3548,0.3558,0.356,0.3589,0.3589,0.359,0.3593,0.3593,0.3593,0.3593,0.3601,0.3602,0.3602,0.3611,0,0,0.3604,0.3604,0,0,0,0,0,0,0,0,0.3503,0.3508,0.3556,0.3558,0.356,0.3588,0.3566,0.3596,0.3593,0.3578,0.3593,0.3592,0.3596,0.3597,0.3602,0.3611,0.3612,0.3604,0.3604,0.3605,0.3605,0,0,0,0,0,0,0,0.3501,0.3506,0.3561,0.3557,0.3559,0.3561,0.3565,0.3571,0.3585,0.3579,0.358,0.3589,0.3596,0.3601,0.3602,0.3612,0.3604,0.3605,0.3605,0.3605,0.3698,0.37,0,0,0,0,0,0,0.3502,0.3504,0.356,0.3563,0.3534,0.3563,0.3567,0.3577,0.3586,0.3588,0.3589,0.3589,0.36,0.3601,0.3602,0.367,0.3605,0.3605,0.3606,0.3696,0.3698,0.3701,0,0,0,0,0,0,0.3501,0.3507,0.3559,0.3536,0.3543,0.3564,0.3575,0.3578,0.36,0.3595,0.3595,0.3611,0.36,0.3601,0.3633,0.3668,0.3606,0.3606,0.3693,0.3697,0.37,0.3769,0,0,0,0,0,0,0.3498,0.3506,0.3518,0.3537,0.3545,0.3592,0.3576,0.3579,0.3606,0.3607,0.3613,0.3612,0.36,0.3632,0.3633,0.3668,0.3607,0.3691,0.3695,0.3699,0.3764,0.3774,0.3783,0,0,0,0,0,0.3495,0.351,0.3519,0.3526,0.356,0.3593,0.3598,0.3609,0.3608,0.3626,0.3634,0.3613,0.3658,0.3634,0.3635,0.3671,0.3689,0.3694,0.3698,0.376,0.3772,0.3783,0,0,0,0,0,0,0.3479,0.3513,0.3522,0.3546,0.3577,0.3595,0.3614,0.3623,0.3644,0.3648,0.3636,0.3638,0.3683,0.367,0.3643,0.3712,0.3672,0.3677,0.3719,0.373,0.3739,0.3754,0.3607,0,0,0,0,0,0.3484,0.3508,0.3539,0.3561,0.3579,0.3602,0.3618,0.3631,0.365,0.3659,0.3665,0.3677,0.3702,0.3709,0.3725,0.3756,0.3763,0.3782,0.3791,0.3799,0.3814,0.3864,0.3879,0.3716,0.3716,0.3716,0,0,0.3483,0.3507,0.3519,0.3561,0.3584,0.3618,0.3611,0.3648,0.3678,0.3657,0.37,0.3713,0.372,0.3762,0.378,0.3754,0.3851,0.3805,0.3812,0.3823,0.387,0.3886,0.39,0.372,0.3719,0.3718,0,0,0.3494,0.3519,0.3544,0.3575,0.3621,0.3641,0.3658,0.3693,0.3712,0.3754,0.3757,0.3796,0.3815,0.3837,0.3847,0.3919,0.3905,0.3924,0.3975,0.4023,0.4036,0.4048,0.4079,0.4093,0.392,0.392,0.392,0,0.3491,0.3528,0.3557,0.3592,0.3624,0.3656,0.3693,0.3722,0.3762,0.3789,0.3777,0.3852,0.3855,0.392,0.3948,0.3941,0.396,0.3927,0.4035,0.4047,0.4058,0.4086,0.4101,0.3924,0.3924,0.3923,0.3923,0,0.3519,0.3556,0.3577,0.3634,0.3673,0.3713,0.376,0.3802,0.3829,0.3855,0.393,0.3947,0.3992,0.4002,0.3996,0.4084,0.4069,0.4046,0.4003,0.4079,0.4104,0.4118,0.393,0.3929,0.3927,0.3926,0,0,0.3487,0.3578,0.3585,0.3614,0.3701,0.3723,0.3802,0.387,0.3918,0.3964,0.4028,0.4083,0.4102,0.4118,0.4124,0.4163,0.4256,0.4143,0.4143,0.4168,0.436,0.4307,0.4316,0.4253,0.4256,0.4258,0.4345,0,0.35,0.3556,0.3615,0.3675,0.3708,0.3781,0.3843,0.3912,0.3976,0.4044,0.4091,0.4155,0.4143,0.4177,0.422,0.4255,0.4297,0.4234,0.4288,0.4289,0.4229,0.4333,0.3989,0.4035,0.4359,0.4361,0.4363,0,0.3502,0.3542,0.3602,0.3686,0.371,0.376,0.3869,0.3933,0.4051,0.4101,0.4191,0.4235,0.4328,0.4292,0.44,0.4362,0.4376,0.4388,0.4391,0.4328,0.4263,0.4013,0.4048,0.4386,0.4384,0.4382,0.4381,0,0.3435,0.3526,0.357,0.3601,0.3709,0.3759,0.3825,0.395,0.4017,0.4157,0.4217,0.4329,0.4389,0.4444,0.4491,0.4458,0.4589,0.4537,0.4501,0.4496,0.4208,0.4173,0.4611,0.4611,0.4611,0.4611,0.4611,0,0.3412,0.3442,0.3539,0.3559,0.3618,0.3714,0.3804,0.3893,0.4032,0.4115,0.424,0.4326,0.4433,0.4519,0.4538,0.458,0.4633,0.4542,0.4531,0.4223,0.419,0.449,0.4475,0.4614,0.4613,0.4613,0.4612,0,0.3334,0.3401,0.3449,0.3555,0.359,0.3632,0.378,0.3833,0.3987,0.4107,0.4161,0.435,0.4478,0.4563,0.4664,0.4634,0.4677,0.4667,0.4301,0.4247,0.4535,0.4523,0.4645,0.4644,0.4643,0.4643,0.4642,0,0.3301,0.3318,0.3419,0.344,0.3493,0.3575,0.3624,0.379,0.3866,0.4111,0.4151,0.4348,0.4451,0.4595,0.46,0.464,0.4694,0.4322,0.4202,0.4571,0.4547,0.4535,0.4524,0.3838,0.3831,0.3826,0.3821,0,0.3233,0.3274,0.3308,0.3354,0.3401,0.3454,0.3552,0.361,0.3808,0.3911,0.4071,0.419,0.437,0.4288,0.437,0.4335,0.4294,0.421,0.4694,0.3899,0.3822,0.3795,0.3808,0.377,0.3775,0.3779,0.3782,0.3784,0.3175,0.3176,0.3217,0.3244,0.3289,0.3313,0.3311,0.342,0.3512,0.3637,0.3864,0.391,0.4009,0.3976,0.388,0.3807,0.4101,0.3895,0.3907,0.3927,0.3834,0.3762,0.368,0.3684,0.3688,0.3692,0.3695,0,0.3073,0.3079,0.3098,0.311,0.3081,0.3167,0.3223,0.3184,0.3207,0.3377,0.3478,0.3288,0.3283,0.3367,0.3202,0.3233,0.3138,0.3081,0.2915,0.2972,0.3022,0.2875,0.247,0.2465,0.2461,0.2457,0,0,0.302,0.2979,0.2974,0.2887,0.2895,0.2818,0.2814,0.279,0.2851,0.2839,0.2853,0.3127,0.3287,0.2825,0.2792,0.2596,0.2739,0.2489,0.3486,0.3349,0.3391,0.3529,0.3376,0,0,0,0,0]},{"header":{"parameterUnit":"m.s-1","parameterCategory":2,"la1":30.2991,"la2":30.254,"lo1":-89.0895,"lo2":-89.0444,"dy":0.0017,"dx":0.0017,"nx":28,"ny":28,"refTime":"2023-11-16T03:00:00:Z","depth":"2","parameterNumber":3,"parameterNumberName":"V-component_of_CURRENTS"},"data":[0,0,0,0,0,0,0,0,0,0,0,0,0,0,0,0,0,0,0,0,0,0,0,0,0,0,0,0,0,0,0,0,0,0,0,0,0,0,0,0,0,0,0,0,0,0,0,0,0,0,0,0,0,0,0,0,0,0,0.0184,0.0183,0,0.0105,0.0104,0.0103,0.0051,0.005,0.005,0.005,-0.0022,-0.0024,-0.0025,0,0,0,0,0,0,0,0,0,0,0,0,0,0.0246,0.0245,0.0184,0.0183,0.0182,0.0105,0.0104,0.0103,0.0051,0.005,0.005,0.005,-0.0022,-0.0024,-0.0025,0,0,0,0,0,0,0,0,0,0,0,0,0,0.0198,0.0245,0.0184,0.0147,0.0143,0.0105,0.0104,0.0102,0.0051,0.005,0.005,0.0049,-0.0021,-0.0023,-0.0026,-0.0032,0,0,-0.0033,-0.0034,0,0,0,0,0,0,0,0,0.0201,0.0196,0.0154,0.015,0.0145,0.0088,0.0099,0.0058,0.0051,0.0085,0.005,0.0049,0.0016,0.001,-0.0004,-0.0035,-0.0038,-0.0033,-0.0035,-0.0036,-0.0037,0,0,0,0,0,0,0,0.0204,0.0198,0.0152,0.0153,0.0148,0.0119,0.0112,0.0091,0.0054,0.0082,0.0079,0.0071,0.0013,-0.0002,-0.0006,-0.0039,-0.0033,-0.0036,-0.0037,-0.0038,-0.0082,-0.0082,0,0,0,0,0,0,0.0218,0.0202,0.0155,0.015,0.0173,0.0119,0.0111,0.0106,0.0054,0.0046,0.0071,0.0068,0.0003,-0.0003,-0.0009,-0.0004,-0.0036,-0.0038,-0.004,-0.0083,-0.0082,-0.0082,0,0,0,0,0,0,0.0219,0.0214,0.0158,0.0174,0.0165,0.0119,0.0113,0.0105,0.0094,0.0045,0.0037,0.0069,0.0002,-0.0006,-0.0021,-0.0007,-0.0039,-0.0042,-0.0083,-0.0083,-0.0082,-0.0003,0,0,0,0,0,0,0.0221,0.0216,0.022,0.0175,0.0165,0.0148,0.0114,0.0104,0.0089,0.0085,0.0041,0.0033,0.0001,-0.0017,-0.0023,-0.0011,-0.0043,-0.0083,-0.0083,-0.0082,-0.0006,0.0001,0.0006,0,0,0,0,0,0.0224,0.0237,0.0221,0.0215,0.0172,0.0149,0.0142,0.0106,0.009,0.0093,0.0061,0.0035,-0.0018,-0.0018,-0.0026,-0.0014,-0.0084,-0.0083,-0.0082,-0.0008,-0.0001,0.0006,0,0,0,0,0,0,0.0265,0.0231,0.0213,0.0214,0.0188,0.0141,0.014,0.0115,0.0091,0.0089,0.0042,0.0033,0.0021,-0.0007,-0.0006,-0.0028,-0.0056,-0.0057,0.0003,0.0009,0.0015,0.004,-0.0046,0,0,0,0,0,0.0277,0.0278,0.0238,0.024,0.0231,0.0187,0.0175,0.0151,0.0121,0.011,0.0076,0.0042,0.0017,0.0006,-0.0023,-0.0028,-0.0064,-0.0028,-0.0023,-0.0017,-0.0003,-0.005,-0.0047,-0.008,-0.008,-0.008,0,0,0.0293,0.0275,0.0274,0.0249,0.0225,0.0229,0.0179,0.0168,0.0172,0.0107,0.0104,0.0062,0.0019,0.0008,0.0001,-0.0011,-0.0028,-0.0017,-0.0012,-0.0,-0.0049,-0.0046,-0.0043,-0.0079,-0.008,-0.008,0,0,0.033,0.031,0.0325,0.0311,0.0285,0.0263,0.0265,0.0224,0.0208,0.0195,0.0149,0.0118,0.008,0.0051,0.0032,0.0053,0.0001,0.0039,0.0093,0.0048,0.005,0.0052,0.0008,0.0005,0.0045,0.0045,0.0045,0,0.0351,0.0363,0.0326,0.0337,0.0337,0.0287,0.0308,0.0286,0.0245,0.0238,0.0207,0.0142,0.0102,0.0091,0.0093,0.0068,0.0032,0.0073,0.0056,0.0057,0.0058,0.0012,0.0008,0.0049,0.0049,0.0048,0.0048,0,0.0399,0.0409,0.0419,0.0421,0.0415,0.0426,0.0394,0.0389,0.036,0.0328,0.0301,0.0235,0.0199,0.0174,0.014,0.0128,0.0097,0.0067,0.0044,0.0066,0.0016,0.0011,0.0055,0.0053,0.0052,0.0051,0,0,0.045,0.0454,0.0458,0.0479,0.0463,0.0469,0.0481,0.0477,0.0493,0.043,0.0435,0.0367,0.0317,0.0293,0.0236,0.0192,0.0156,0.0139,0.0135,0.0104,0.0055,0.0036,0.0028,0.0121,0.0121,0.0121,0.0018,0,0.0503,0.0551,0.0534,0.0588,0.0614,0.0583,0.0604,0.059,0.056,0.0551,0.0469,0.0447,0.0367,0.035,0.0294,0.0196,0.0146,0.0187,0.0031,0.0026,0.0014,0.0022,0.0063,-0.0024,0.0012,0.0011,0.0011,0,0.0563,0.0588,0.065,0.0685,0.0694,0.0721,0.0751,0.0761,0.0728,0.0703,0.0652,0.0577,0.0511,0.0435,0.028,0.0309,0.0194,0.0105,0.0099,0.0053,-0.0002,-0.0042,-0.0037,0.0001,0.0001,0.0002,0.0003,0,0.0633,0.0674,0.0733,0.0744,0.0771,0.0802,0.0821,0.081,0.0837,0.08,0.0804,0.0693,0.0656,0.0497,0.0309,0.0293,0.0132,0.0083,-0.0046,-0.0049,-0.0058,-0.006,-0.0031,-0.0031,-0.0031,-0.003,-0.003,0,0.0702,0.0748,0.0777,0.081,0.0896,0.0882,0.0962,0.0961,0.097,0.102,0.0892,0.0902,0.067,0.0543,0.0352,0.0147,0.0161,-0.003,-0.0073,-0.003,-0.0029,-0.0041,-0.0041,-0.0034,-0.0033,-0.0033,-0.0032,0,0.0766,0.078,0.0856,0.0906,0.0934,0.0996,0.1071,0.1121,0.1117,0.1179,0.1174,0.1063,0.0902,0.0654,0.0403,0.0223,0.0014,-0.0067,0.0001,-0.0033,-0.0152,-0.0147,-0.0223,-0.0225,-0.0226,-0.0227,-0.0228,0,0.08,0.0849,0.0936,0.0989,0.1019,0.1107,0.1173,0.1201,0.1265,0.1289,0.1332,0.1194,0.1126,0.0743,0.0399,0.0061,0.0012,-0.0128,-0.0158,-0.0136,-0.0171,-0.0163,-0.0156,-0.0146,-0.0146,-0.0146,-0.0146,0,0.0869,0.0903,0.0963,0.1082,0.1164,0.1268,0.1367,0.1444,0.1492,0.1546,0.1595,0.154,0.1182,0.0846,0.0377,0.0155,-0.0073,-0.0141,-0.0133,-0.0096,-0.0069,-0.0101,-0.0096,-0.0147,-0.0147,-0.0147,-0.0147,-0.0147,0.0922,0.0977,0.1063,0.1177,0.1281,0.1418,0.1517,0.1628,0.1758,0.1845,0.1793,0.1721,0.1337,0.0742,0.0335,-0.0092,-0.0072,-0.0221,-0.0219,-0.0216,-0.0182,-0.0158,-0.0246,-0.0246,-0.0247,-0.0247,-0.0247,0,0.0979,0.1044,0.1149,0.1284,0.1407,0.146,0.1639,0.1742,0.191,0.1977,0.201,0.1654,0.1265,0.0812,0.0178,-0.0193,-0.0214,-0.0307,-0.0258,-0.0253,-0.0249,-0.0216,-0.029,-0.0292,-0.0293,-0.0294,0,0,0.1006,0.1109,0.1162,0.1366,0.1471,0.1649,0.176,0.1917,0.2015,0.2086,0.2042,0.1949,0.1405,0.0941,0.0431,0.0059,-0.0006,-0.0003,0.0077,0.0203,0.021,-0.0151,-0.0087,0,0,0,0,0]}],[{"header":{"parameterUnit":"m.s-1","parameterCategory":2,"la1":30.2991,"la2":30.254,"lo1":-89.0895,"lo2":-89.0444,"dy":0.0017,"dx":0.0017,"nx":28,"ny":28,"refTime":"2023-11-16T03:00:00:Z","depth":"4","parameterNumber":2,"parameterNumberName":"U-component_of_CURRENTS"},"data":[0,0,0,0,0,0,0,0,0,0,0,0,0,0,0,0,0,0,0,0,0,0,0,0,0,0,0,0,0,0,0,0,0,0,0,0,0,0,0,0,0,0,0,0,0,0,0,0,0,0,0,0,0,0,0,0,0,0,0.2292,0.2293,0,0.2387,0.2387,0.2388,0.2464,0.2466,0.2467,0.2468,0.2567,0.2569,0.2571,0,0,0,0,0,0,0,0,0,0,0,0,0,0.2155,0.2157,0.2291,0.2293,0.2294,0.2386,0.2387,0.2389,0.2464,0.2466,0.2467,0.2468,0.2567,0.2569,0.2571,0,0,0,0,0,0,0,0,0,0,0,0,0,0.2226,0.2158,0.2291,0.2345,0.2351,0.2386,0.2388,0.2389,0.2464,0.2466,0.2467,0.2469,0.2566,0.2568,0.2571,0.2555,0,0,0.2579,0.258,0,0,0,0,0,0,0,0,0.2222,0.223,0.2336,0.2342,0.2349,0.2418,0.2376,0.2446,0.2464,0.2418,0.2468,0.2469,0.2518,0.2525,0.2535,0.256,0.2564,0.2579,0.258,0.2582,0.2582,0,0,0,0,0,0,0,0.2217,0.2227,0.2326,0.2337,0.2345,0.2358,0.237,0.2389,0.2456,0.2422,0.2429,0.2443,0.2522,0.2532,0.2538,0.2566,0.2579,0.2581,0.2583,0.2584,0.2736,0.2739,0,0,0,0,0,0,0.2211,0.2222,0.2323,0.2329,0.2291,0.236,0.2373,0.2392,0.2456,0.2468,0.2442,0.2447,0.2527,0.2535,0.2542,0.2664,0.2582,0.2584,0.2585,0.2734,0.2737,0.274,0,0,0,0,0,0,0.2207,0.2219,0.2319,0.228,0.2294,0.2361,0.2381,0.2393,0.2457,0.2472,0.2484,0.2501,0.2529,0.2538,0.2611,0.2663,0.2585,0.2587,0.2731,0.2735,0.2738,0.2821,0,0,0,0,0,0,0.2203,0.2217,0.2252,0.228,0.2296,0.2373,0.2381,0.2394,0.2462,0.247,0.2525,0.2533,0.2531,0.2608,0.2614,0.2666,0.2589,0.2728,0.2732,0.2737,0.2815,0.2827,0.2837,0,0,0,0,0,0.2198,0.2229,0.2253,0.2267,0.2334,0.2375,0.2386,0.2435,0.2463,0.2498,0.2543,0.2534,0.2642,0.2612,0.2618,0.2672,0.2725,0.2731,0.2737,0.281,0.2825,0.2837,0,0,0,0,0,0,0.2188,0.224,0.2267,0.2315,0.236,0.239,0.2435,0.2464,0.2525,0.2552,0.2563,0.2574,0.2659,0.2655,0.2621,0.2731,0.2683,0.2691,0.2737,0.2751,0.2762,0.2768,0.2591,0,0,0,0,0,0.22,0.2244,0.2288,0.2333,0.2361,0.2408,0.2442,0.2476,0.2522,0.2554,0.2592,0.2636,0.2677,0.2708,0.2739,0.2795,0.2797,0.2836,0.2848,0.2857,0.2868,0.2917,0.2934,0.2758,0.2758,0.2758,0,0,0.2209,0.2247,0.2273,0.2336,0.2379,0.2423,0.2434,0.2501,0.255,0.2552,0.2648,0.2681,0.2703,0.2773,0.2809,0.2782,0.2909,0.2864,0.2872,0.2878,0.2925,0.2942,0.2957,0.2762,0.2761,0.2761,0,0,0.2231,0.2286,0.2326,0.2369,0.2444,0.2471,0.2502,0.2564,0.2613,0.2691,0.2714,0.2782,0.2841,0.287,0.2888,0.298,0.2969,0.2999,0.3059,0.3107,0.3122,0.3134,0.316,0.3174,0.3001,0.3001,0.3001,0,0.2245,0.2299,0.2345,0.2392,0.2439,0.2498,0.2549,0.2598,0.268,0.2726,0.2738,0.2861,0.2884,0.2964,0.3004,0.3005,0.3026,0.3002,0.3121,0.3134,0.3145,0.3168,0.3183,0.3006,0.3005,0.3005,0.3005,0,0.228,0.2345,0.2375,0.2456,0.2509,0.2569,0.2634,0.2704,0.277,0.2814,0.293,0.2969,0.3042,0.3063,0.3065,0.3167,0.3153,0.313,0.3082,0.3168,0.3186,0.32,0.3013,0.3011,0.301,0.3008,0,0,0.2256,0.2377,0.2394,0.2441,0.2554,0.2588,0.2691,0.2782,0.2853,0.2942,0.3031,0.3119,0.3159,0.3184,0.3205,0.3249,0.335,0.3238,0.3238,0.3255,0.3457,0.3246,0.324,0.3356,0.3359,0.3361,0.3436,0,0.2278,0.2363,0.243,0.2524,0.2572,0.2666,0.2745,0.284,0.2931,0.3029,0.31,0.3195,0.3198,0.3255,0.3305,0.3346,0.3391,0.3331,0.3378,0.3379,0.3175,0.325,0.337,0.3446,0.3449,0.3451,0.3453,0,0.2285,0.2345,0.2439,0.2555,0.2588,0.2662,0.2804,0.2886,0.3031,0.3104,0.3219,0.328,0.3393,0.3368,0.3487,0.3456,0.3474,0.3486,0.3488,0.327,0.3193,0.3344,0.3477,0.3475,0.3474,0.3472,0.347,0,0.2219,0.2347,0.2424,0.2467,0.2607,0.2685,0.2773,0.2922,0.3004,0.3176,0.3251,0.3382,0.3464,0.3523,0.3574,0.3551,0.367,0.3629,0.3452,0.3437,0.3567,0.3552,0.3703,0.3702,0.3702,0.3702,0.3702,0,0.2191,0.2256,0.2407,0.2446,0.2545,0.2661,0.2789,0.2896,0.3056,0.3146,0.3296,0.3374,0.3513,0.3593,0.3614,0.3575,0.3709,0.3474,0.3446,0.36,0.3588,0.3576,0.3561,0.3705,0.3704,0.3704,0.3703,0,0.2106,0.2209,0.2301,0.2462,0.2521,0.2597,0.279,0.2859,0.3037,0.3163,0.3227,0.3409,0.351,0.3603,0.3699,0.3601,0.3598,0.3548,0.3718,0.3697,0.3322,0.331,0.3347,0.334,0.3334,0.333,0.3326,0,0.2066,0.2108,0.2291,0.2345,0.2434,0.2567,0.2644,0.2835,0.2911,0.315,0.318,0.3358,0.3453,0.3409,0.3532,0.3548,0.3507,0.3472,0.3382,0.3318,0.3289,0.3286,0.3282,0.3317,0.3315,0.3314,0.3312,0,0.1984,0.2075,0.2147,0.2261,0.2359,0.2445,0.258,0.2615,0.282,0.3001,0.3058,0.3112,0.321,0.3275,0.3312,0.3318,0.3474,0.3411,0.3422,0.3337,0.3282,0.3258,0.3261,0.3292,0.3295,0.3297,0.3298,0,0.193,0.1957,0.2064,0.2143,0.2251,0.2284,0.2378,0.2453,0.255,0.28,0.2818,0.2999,0.3175,0.3158,0.3199,0.3186,0.3132,0.3011,0.3041,0.3064,0.2938,0.2824,0.2678,0,0,0,0,0,0.1855,0.1862,0.1927,0.1994,0.2089,0.2155,0.2305,0.2398,0.2596,0.2558,0.2679,0.2756,0.2813,0.2918,0.2848,0.309,0.3154,0.2995,0.3032,0.3183,0.3206,0.3083,0,0,0,0,0,0,0.1802,0.186,0.1873,0.1847,0.1863,0.1945,0.2034,0.2171,0.2166,0.2378,0.2426,0.2583,0.2687,0.2818,0.2792,0.2822,0.2787,0.3117,0.311,0.317,0.319,0.3209,0.3091,0,0,0,0,0]},{"header":{"parameterUnit":"m.s-1","parameterCategory":2,"la1":30.2991,"la2":30.254,"lo1":-89.0895,"lo2":-89.0444,"dy":0.0017,"dx":0.0017,"nx":28,"ny":28,"refTime":"2023-11-16T03:00:00:Z","depth":"4","parameterNumber":3,"parameterNumberName":"V-component_of_CURRENTS"},"data":[0,0,0,0,0,0,0,0,0,0,0,0,0,0,0,0,0,0,0,0,0,0,0,0,0,0,0,0,0,0,0,0,0,0,0,0,0,0,0,0,0,0,0,0,0,0,0,0,0,0,0,0,0,0,0,0,0,0,0.0172,0.0171,0,0.0117,0.0116,0.0116,0.0079,0.0079,0.0078,0.0078,0.0025,0.0024,0.0023,0,0,0,0,0,0,0,0,0,0,0,0,0,0.0213,0.0212,0.0172,0.0171,0.0171,0.0117,0.0116,0.0116,0.0079,0.0079,0.0078,0.0078,0.0025,0.0024,0.0022,0,0,0,0,0,0,0,0,0,0,0,0,0,0.018,0.0212,0.0172,0.0146,0.0143,0.0117,0.0116,0.0115,0.0079,0.0079,0.0078,0.0078,0.0026,0.0024,0.0022,0.0017,0,0,0.0017,0.0016,0,0,0,0,0,0,0,0,0.0182,0.0178,0.0151,0.0148,0.0145,0.0105,0.0111,0.0083,0.0079,0.0103,0.0078,0.0078,0.0052,0.0048,0.0038,0.0015,0.0013,0.0016,0.0015,0.0015,0.0014,0,0,0,0,0,0,0,0.0184,0.018,0.015,0.015,0.0146,0.0126,0.0122,0.0105,0.008,0.0101,0.0098,0.0093,0.0051,0.004,0.0037,0.0012,0.0017,0.0015,0.0014,0.0013,-0.0019,-0.0018,0,0,0,0,0,0,0.0194,0.0183,0.0152,0.0148,0.0163,0.0126,0.0121,0.0118,0.008,0.0074,0.0093,0.0091,0.0043,0.0039,0.0035,0.0042,0.0015,0.0013,0.0012,-0.0019,-0.0018,-0.0018,0,0,0,0,0,0,0.0195,0.0192,0.0154,0.0164,0.0158,0.0126,0.0123,0.0117,0.0111,0.0074,0.0068,0.0094,0.0043,0.0037,0.0028,0.0039,0.0012,0.001,-0.0019,-0.0019,-0.0018,0.0047,0,0,0,0,0,0,0.0196,0.0193,0.0199,0.0165,0.0158,0.0148,0.0123,0.0116,0.0108,0.0105,0.0073,0.0067,0.0042,0.0031,0.0026,0.0036,0.0009,-0.0019,-0.0019,-0.0018,0.0045,0.005,0.0054,0,0,0,0,0,0.0198,0.0209,0.0199,0.0196,0.0166,0.0149,0.0144,0.0119,0.0108,0.0111,0.0089,0.0068,0.003,0.003,0.0024,0.0034,-0.002,-0.0019,-0.0018,0.0043,0.0049,0.0054,0,0,0,0,0,0,0.0229,0.0205,0.0194,0.0197,0.0179,0.0143,0.0145,0.0127,0.0111,0.0111,0.0075,0.0068,0.0061,0.0039,0.0039,0.0025,0.0,-0.0,0.0049,0.0054,0.0059,0.0078,0.0007,0,0,0,0,0,0.024,0.0243,0.0214,0.0218,0.0212,0.018,0.0172,0.0156,0.0134,0.0126,0.0102,0.0077,0.0058,0.0051,0.0029,0.0026,-0.0007,0.0026,0.0031,0.0035,0.0046,0.0003,0.0005,-0.0016,-0.0016,-0.0016,0,0,0.0254,0.0241,0.0243,0.0225,0.021,0.0213,0.0175,0.0169,0.0174,0.0124,0.0126,0.0094,0.006,0.0054,0.0049,0.0039,0.0023,0.0036,0.004,0.0048,0.0003,0.0005,0.0007,-0.0016,-0.0016,-0.0016,0,0,0.0284,0.0272,0.0285,0.0276,0.0258,0.0242,0.0245,0.0215,0.0204,0.0198,0.0162,0.0139,0.0113,0.0089,0.0074,0.0093,0.0048,0.0083,0.0126,0.0084,0.0085,0.0086,0.0044,0.0041,0.0088,0.0088,0.0088,0,0.0302,0.0313,0.0287,0.0296,0.0298,0.0262,0.0279,0.0264,0.0235,0.0231,0.021,0.0162,0.013,0.0121,0.0124,0.0105,0.0072,0.011,0.0091,0.0091,0.0091,0.0048,0.0043,0.0091,0.0091,0.009,0.009,0,0.0338,0.035,0.0359,0.0363,0.0361,0.037,0.0348,0.0347,0.0329,0.0305,0.0286,0.0236,0.0209,0.019,0.0164,0.015,0.0124,0.0101,0.008,0.0097,0.005,0.0044,0.0096,0.0094,0.0093,0.0093,0,0,0.0374,0.0384,0.0389,0.0408,0.0399,0.0405,0.0419,0.0417,0.0429,0.0386,0.0391,0.034,0.0302,0.0283,0.0238,0.0199,0.0164,0.0157,0.0153,0.0122,0.007,0.0056,0.0047,0.0135,0.0135,0.0134,0.0037,0,0.0414,0.0453,0.0445,0.0492,0.0513,0.0494,0.0515,0.0506,0.0484,0.0478,0.0417,0.0402,0.0342,0.033,0.0281,0.0197,0.0152,0.0193,0.0052,0.0048,0.0039,0.0042,0.0133,0.0032,0.0031,0.003,0.0029,0,0.0455,0.0477,0.053,0.0566,0.0575,0.0602,0.0629,0.064,0.0617,0.0599,0.056,0.0501,0.0447,0.0391,0.0254,0.0283,0.0187,0.0111,0.0105,0.0068,0.0024,0.0009,0.0018,0.0018,0.0019,0.002,0.0021,0,0.0499,0.054,0.0591,0.0602,0.0634,0.0666,0.0688,0.0681,0.0704,0.0677,0.0681,0.0589,0.0559,0.0427,0.0268,0.0261,0.0109,0.0077,-0.003,-0.0032,-0.0019,-0.002,-0.0023,-0.0023,-0.0022,-0.0022,-0.0022,0,0.0541,0.0583,0.0624,0.0652,0.0729,0.0728,0.0797,0.0801,0.0812,0.0846,0.0754,0.0749,0.0566,0.0452,0.0296,0.0121,0.0127,-0.0019,-0.0056,0.0009,0.0014,-0.0024,-0.0023,-0.0026,-0.0025,-0.0024,-0.0024,0,0.0576,0.0599,0.0666,0.0723,0.0755,0.081,0.0889,0.0927,0.0932,0.0973,0.0972,0.0873,0.0723,0.0524,0.0306,0.0172,-0.0005,-0.0072,0.0019,-0.0012,-0.0128,-0.0122,-0.0198,-0.0199,-0.0201,-0.0201,-0.0202,0,0.0593,0.0634,0.0728,0.0778,0.0812,0.0897,0.0957,0.0993,0.1036,0.1047,0.1071,0.0946,0.085,0.0544,0.0323,0.002,-0.0029,-0.0125,-0.0136,-0.0116,-0.0145,-0.0138,-0.0131,-0.0204,-0.0204,-0.0204,-0.0205,0,0.0627,0.0668,0.0723,0.0834,0.0914,0.1006,0.1094,0.1137,0.1176,0.1181,0.115,0.0985,0.0814,0.0556,0.0319,0.0101,-0.0064,-0.0137,-0.0137,-0.0148,-0.0124,-0.015,-0.0142,-0.0208,-0.0208,-0.0207,-0.0207,0,0.0657,0.0702,0.0784,0.0881,0.0987,0.1085,0.1128,0.1182,0.1228,0.1232,0.122,0.1032,0.0923,0.0597,0.0384,0.0163,0.0096,0.0016,0.0007,0.0008,0.0089,0.0151,0.0124,0,0,0,0,0,0.0679,0.0729,0.0819,0.0926,0.1034,0.1102,0.1207,0.1237,0.1277,0.1265,0.1246,0.1085,0.0769,0.0637,0.0414,0.034,0.0044,0.0068,-0.0056,-0.0229,-0.0225,-0.0167,0,0,0,0,0,0,0.0688,0.0772,0.0816,0.0952,0.1031,0.1156,0.1227,0.1252,0.1248,0.1251,0.1091,0.1018,0.0713,0.0897,0.0407,0.0341,0.0228,-0.0075,-0.008,-0.0231,-0.0227,-0.0224,-0.0164,0,0,0,0,0]}]]